Time,TemperatureF,DewpointF,PressureIn,WindDirection,WindDirectionDegrees,WindSpeedMPH,WindSpeedGustMPH,Humidity,HourlyPrecipIn,Conditions,Clouds,dailyrainin,SoftwareType,DateUTC
2013-11-29 00:01:00,64.0,59.4,30.22,NW,310,1.4,2.3,85,0.00,CLR,,0.00,WeatherDisplay:10.37,2013-11-29 05:01:00,
2013-11-29 00:02:00,64.0,59.4,30.22,NW,310,1.1,3.5,85,0.00,CLR,,0.00,WeatherDisplay:10.37,2013-11-29 05:02:00,
2013-11-29 00:07:00,63.6,59.0,30.22,NW,310,1.1,2.3,85,0.00,CLR,,0.00,WeatherDisplay:10.37,2013-11-29 05:07:00,
2013-11-29 00:12:00,63.3,59.0,30.22,NW,309,4.0,5.8,86,0.00,CLR,,0.00,WeatherDisplay:10.37,2013-11-29 05:12:00,
2013-11-29 00:17:00,63.0,58.7,30.22,NW,309,1.9,3.5,86,0.00,CLR,,0.00,WeatherDisplay:10.37,2013-11-29 05:17:00,
2013-11-29 00:22:00,62.8,58.9,30.22,NW,309,1.9,2.3,87,0.00,CLR,,0.00,WeatherDisplay:10.37,2013-11-29 05:22:00,
2013-11-29 00:27:00,62.5,58.6,30.21,NW,309,0.0,2.3,87,0.00,CLR,,0.00,WeatherDisplay:10.37,2013-11-29 05:27:00,
2013-11-29 00:32:00,62.3,58.4,30.21,NW,309,0.0,0.0,87,0.00,CLR,,0.00,WeatherDisplay:10.37,2013-11-29 05:32:00,
2013-11-29 00:38:00,62.1,58.5,30.21,NW,309,0.1,1.2,88,0.00,CLR,,0.00,WeatherDisplay:10.37,2013-11-29 05:38:00,
2013-11-29 00:43:00,61.9,58.3,30.21,NW,309,0.0,0.0,88,0.00,CLR,,0.00,WeatherDisplay:10.37,2013-11-29 05:43:00,
2013-11-29 00:48:00,61.8,58.2,30.21,NW,309,0.0,1.2,88,0.00,CLR,,0.00,WeatherDisplay:10.37,2013-11-29 05:48:00,
2013-11-29 00:53:00,61.6,58.3,30.21,NW,309,0.0,0.0,89,0.00,CLR,,0.00,WeatherDisplay:10.37,2013-11-29 05:53:00,
2013-11-29 00:58:00,61.3,58.0,30.21,NW,309,0.0,0.0,89,0.00,CLR,,0.00,WeatherDisplay:10.37,2013-11-29 05:58:00,
2013-11-29 01:03:00,61.2,57.9,30.21,NW,309,0.1,1.2,89,0.00,CLR,,0.00,WeatherDisplay:10.37,2013-11-29 06:03:00,
2013-11-29 01:08:00,61.1,58.1,30.20,NW,309,0.3,1.2,90,0.00,CLR,,0.00,WeatherDisplay:10.37,2013-11-29 06:08:00,
2013-11-29 01:13:00,60.9,57.9,30.20,NW,309,0.9,1.2,90,0.00,CLR,,0.00,WeatherDisplay:10.37,2013-11-29 06:13:00,
2013-11-29 01:18:00,60.7,58.1,30.20,NW,309,0.7,2.3,91,0.00,CLR,,0.00,WeatherDisplay:10.37,2013-11-29 06:18:00,
2013-11-29 01:23:00,60.6,58.0,30.20,NW,309,0.1,1.2,91,0.00,CLR,,0.00,WeatherDisplay:10.37,2013-11-29 06:23:00,
2013-11-29 01:28:00,60.5,57.9,30.20,NW,309,0.3,1.2,91,0.00,CLR,,0.00,WeatherDisplay:10.37,2013-11-29 06:28:00,
2013-11-29 01:33:00,60.4,57.8,30.20,NW,309,1.2,3.5,91,0.00,CLR,,0.00,WeatherDisplay:10.37,2013-11-29 06:33:00,
2013-11-29 01:38:00,60.4,58.1,30.20,NW,309,1.9,3.5,92,0.00,CLR,,0.00,WeatherDisplay:10.37,2013-11-29 06:38:00,
2013-11-29 01:43:00,60.4,58.1,30.20,NW,309,2.2,3.5,92,0.00,CLR,,0.00,WeatherDisplay:10.37,2013-11-29 06:43:00,
2013-11-29 01:48:00,60.5,58.5,30.20,NW,307,2.0,5.0,93,0.00,CLR,,0.00,WeatherDisplay:10.37,2013-11-29 06:48:00,
2013-11-29 01:53:00,60.5,58.5,30.20,NW,317,2.4,3.5,93,0.00,CLR,,0.00,WeatherDisplay:10.37,2013-11-29 06:53:00,
2013-11-29 01:58:00,60.6,58.6,30.20,NW,319,0.1,1.2,93,0.00,CLR,,0.00,WeatherDisplay:10.37,2013-11-29 06:58:00,
2013-11-29 02:03:00,60.5,58.2,30.20,NW,318,0.0,1.2,92,0.00,CLR,,0.00,WeatherDisplay:10.37,2013-11-29 07:03:00,
2013-11-29 02:08:00,60.5,58.5,30.20,NW,318,3.2,4.6,93,0.00,CLR,,0.00,WeatherDisplay:10.37,2013-11-29 07:08:00,
2013-11-29 02:13:00,60.4,58.4,30.19,NW,315,2.4,5.8,93,0.00,CLR,,0.00,WeatherDisplay:10.37,2013-11-29 07:13:00,
2013-11-29 02:18:00,60.4,58.4,30.19,NW,325,1.5,3.5,93,0.00,CLR,,0.00,WeatherDisplay:10.37,2013-11-29 07:18:00,
2013-11-29 02:23:00,60.4,58.4,30.19,NW,306,1.3,3.5,93,0.00,CLR,,0.00,WeatherDisplay:10.37,2013-11-29 07:23:00,
2013-11-29 02:28:00,60.3,58.3,30.19,NW,315,1.5,3.5,93,0.00,CLR,,0.00,WeatherDisplay:10.37,2013-11-29 07:28:00,
2013-11-29 02:33:00,60.3,58.3,30.19,NW,309,2.5,4.6,93,0.00,CLR,,0.00,WeatherDisplay:10.37,2013-11-29 07:33:00,
2013-11-29 02:38:00,60.2,58.2,30.19,NW,314,2.0,3.5,93,0.00,CLR,,0.00,WeatherDisplay:10.37,2013-11-29 07:38:00,
2013-11-29 02:43:00,60.2,58.2,30.19,NW,313,2.4,5.8,93,0.00,CLR,,0.00,WeatherDisplay:10.37,2013-11-29 07:43:00,
2013-11-29 02:48:00,60.1,58.1,30.19,NW,317,2.4,4.6,93,0.00,CLR,,0.00,WeatherDisplay:10.37,2013-11-29 07:48:00,
2013-11-29 02:53:00,60.1,58.1,30.19,NW,321,1.2,2.3,93,0.00,CLR,,0.00,WeatherDisplay:10.37,2013-11-29 07:53:00,
2013-11-29 02:58:00,60.1,58.1,30.19,NW,321,3.1,4.6,93,0.00,CLR,,0.00,WeatherDisplay:10.37,2013-11-29 07:58:00,
2013-11-29 03:03:00,60.1,58.1,30.18,NW,305,0.8,2.3,93,0.00,CLR,,0.00,WeatherDisplay:10.37,2013-11-29 08:03:00,
2013-11-29 03:08:00,60.0,58.0,30.19,WNW,301,1.5,3.5,93,0.00,CLR,,0.00,WeatherDisplay:10.37,2013-11-29 08:08:00,
2013-11-29 03:14:00,60.0,58.0,30.19,WNW,301,0.5,2.3,93,0.00,CLR,,0.00,WeatherDisplay:10.37,2013-11-29 08:14:00,
2013-11-29 03:19:00,60.0,58.0,30.19,WNW,301,0.3,2.3,93,0.00,CLR,,0.00,WeatherDisplay:10.37,2013-11-29 08:19:00,
2013-11-29 03:24:00,60.0,58.3,30.19,NW,304,2.7,5.8,94,0.00,CLR,,0.00,WeatherDisplay:10.37,2013-11-29 08:24:00,
2013-11-29 03:29:00,59.9,58.2,30.19,NW,304,0.0,0.0,94,0.00,CLR,,0.00,WeatherDisplay:10.37,2013-11-29 08:29:00,
2013-11-29 03:34:00,59.9,58.2,30.18,NW,320,1.7,6.9,94,0.00,CLR,,0.00,WeatherDisplay:10.37,2013-11-29 08:34:00,
2013-11-29 03:39:00,59.9,58.2,30.18,NW,315,2.2,3.5,94,0.00,CLR,,0.00,WeatherDisplay:10.37,2013-11-29 08:39:00,
2013-11-29 03:44:00,59.9,58.2,30.18,NW,321,3.6,5.8,94,0.00,CLR,,0.00,WeatherDisplay:10.37,2013-11-29 08:44:00,
2013-11-29 03:49:00,59.9,58.2,30.18,NNW,335,3.0,4.6,94,0.00,CLR,,0.00,WeatherDisplay:10.37,2013-11-29 08:49:00,
2013-11-29 03:54:00,59.9,57.9,30.18,NW,315,3.2,5.8,93,0.00,CLR,,0.00,WeatherDisplay:10.37,2013-11-29 08:54:00,
2013-11-29 03:59:00,59.9,57.9,30.18,NW,315,2.3,3.5,93,0.00,CLR,,0.00,WeatherDisplay:10.37,2013-11-29 08:59:00,
2013-11-29 04:04:00,59.9,57.9,30.19,NW,316,4.5,6.9,93,0.00,CLR,,0.00,WeatherDisplay:10.37,2013-11-29 09:04:00,
2013-11-29 04:09:00,59.9,57.9,30.19,NW,318,3.9,6.9,93,0.00,CLR,,0.00,WeatherDisplay:10.37,2013-11-29 09:09:00,
2013-11-29 04:14:00,59.9,57.9,30.19,NW,312,2.8,4.6,93,0.00,CLR,,0.00,WeatherDisplay:10.37,2013-11-29 09:14:00,
2013-11-29 04:19:00,59.8,57.8,30.19,NNW,336,2.4,5.8,93,0.00,CLR,,0.00,WeatherDisplay:10.37,2013-11-29 09:19:00,
2013-11-29 04:24:00,59.8,57.8,30.19,NNW,331,2.7,3.5,93,0.00,CLR,,0.00,WeatherDisplay:10.37,2013-11-29 09:24:00,
2013-11-29 04:29:00,59.8,57.8,30.20,NNW,331,1.0,2.3,93,0.00,CLR,,0.00,WeatherDisplay:10.37,2013-11-29 09:29:00,
2013-11-29 04:34:00,59.7,57.7,30.19,NW,323,2.5,3.5,93,0.00,CLR,,0.00,WeatherDisplay:10.37,2013-11-29 09:34:00,
2013-11-29 04:39:00,59.6,57.6,30.20,NW,316,0.6,3.5,93,0.00,CLR,,0.00,WeatherDisplay:10.37,2013-11-29 09:39:00,
2013-11-29 04:44:00,59.6,57.6,30.20,NW,306,2.5,5.8,93,0.00,CLR,,0.00,WeatherDisplay:10.37,2013-11-29 09:44:00,
2013-11-29 04:49:00,59.6,57.6,30.20,NW,314,0.9,2.3,93,0.00,CLR,,0.00,WeatherDisplay:10.37,2013-11-29 09:49:00,
2013-11-29 04:54:00,59.5,57.5,30.20,NW,309,2.3,3.5,93,0.00,CLR,,0.00,WeatherDisplay:10.37,2013-11-29 09:54:00,
2013-11-29 04:59:00,59.4,57.4,30.20,NW,319,2.7,4.0,93,0.00,CLR,,0.00,WeatherDisplay:10.37,2013-11-29 09:59:00,
2013-11-29 05:04:00,59.4,57.4,30.19,NW,311,0.7,6.9,93,0.00,CLR,,0.00,WeatherDisplay:10.37,2013-11-29 10:04:00,
2013-11-29 05:09:00,59.5,57.5,30.20,NNW,331,2.4,5.8,93,0.00,CLR,,0.00,WeatherDisplay:10.37,2013-11-29 10:09:00,
2013-11-29 05:14:00,59.5,57.5,30.20,NW,309,2.2,3.5,93,0.00,CLR,,0.00,WeatherDisplay:10.37,2013-11-29 10:14:00,
2013-11-29 05:19:00,59.5,57.5,30.20,NW,313,2.6,5.8,93,0.00,CLR,,0.00,WeatherDisplay:10.37,2013-11-29 10:19:00,
2013-11-29 05:24:00,59.5,57.5,30.20,NW,321,2.4,3.5,93,0.00,CLR,,0.00,WeatherDisplay:10.37,2013-11-29 10:24:00,
2013-11-29 05:29:00,59.5,57.5,30.20,NW,321,0.4,4.6,93,0.00,CLR,,0.00,WeatherDisplay:10.37,2013-11-29 10:29:00,
2013-11-29 05:34:00,59.7,57.7,30.20,NW,319,0.1,0.0,93,0.00,CLR,,0.00,WeatherDisplay:10.37,2013-11-29 10:34:00,
2013-11-29 05:39:00,59.7,57.7,30.20,NW,319,1.3,2.3,93,0.00,CLR,,0.00,WeatherDisplay:10.37,2013-11-29 10:39:00,
2013-11-29 05:44:00,59.8,57.8,30.20,NW,319,1.6,3.5,93,0.00,CLR,,0.00,WeatherDisplay:10.37,2013-11-29 10:44:00,
2013-11-29 05:49:00,59.8,57.8,30.20,NW,319,1.2,2.3,93,0.00,CLR,,0.00,WeatherDisplay:10.37,2013-11-29 10:49:00,
2013-11-29 05:54:00,59.8,57.8,30.20,NW,319,0.5,2.3,93,0.00,CLR,,0.00,WeatherDisplay:10.37,2013-11-29 10:54:00,
2013-11-29 05:59:00,59.9,57.9,30.21,NW,319,0.5,3.5,93,0.00,CLR,,0.00,WeatherDisplay:10.37,2013-11-29 10:59:00,
2013-11-29 06:04:00,59.9,57.9,30.21,NW,319,0.6,3.5,93,0.00,CLR,,0.00,WeatherDisplay:10.37,2013-11-29 11:04:00,
2013-11-29 06:09:00,59.9,57.9,30.21,NW,319,0.4,1.2,93,0.00,CLR,,0.00,WeatherDisplay:10.37,2013-11-29 11:09:00,
2013-11-29 06:14:00,59.9,57.9,30.22,NW,319,0.2,1.2,93,0.00,CLR,,0.00,WeatherDisplay:10.37,2013-11-29 11:14:00,
2013-11-29 06:19:00,60.0,57.7,30.22,NW,305,0.3,3.5,92,0.00,CLR,,0.00,WeatherDisplay:10.37,2013-11-29 11:19:00,
2013-11-29 06:24:00,60.0,57.7,30.21,NW,306,2.0,2.3,92,0.00,CLR,,0.00,WeatherDisplay:10.37,2013-11-29 11:24:00,
2013-11-29 06:29:00,60.0,58.0,30.22,NW,306,1.1,2.3,93,0.00,CLR,,0.00,WeatherDisplay:10.37,2013-11-29 11:29:00,
2013-11-29 06:34:00,60.0,58.0,30.22,NW,306,1.5,2.3,93,0.00,CLR,,0.00,WeatherDisplay:10.37,2013-11-29 11:34:00,
2013-11-29 06:39:00,59.9,57.9,30.22,NW,325,3.2,4.6,93,0.00,CLR,,0.00,WeatherDisplay:10.37,2013-11-29 11:39:00,
2013-11-29 06:44:00,59.8,57.8,30.22,NW,325,2.6,3.5,93,0.00,CLR,,0.00,WeatherDisplay:10.37,2013-11-29 11:44:00,
2013-11-29 06:49:00,59.8,57.8,30.22,NW,309,2.6,5.0,93,0.00,CLR,,0.00,WeatherDisplay:10.37,2013-11-29 11:49:00,
2013-11-29 06:54:00,59.8,57.8,30.23,NW,314,2.1,3.5,93,0.00,CLR,,0.00,WeatherDisplay:10.37,2013-11-29 11:54:00,
2013-11-29 06:59:00,59.7,57.7,30.23,NNW,331,2.5,3.0,93,0.00,CLR,,0.00,WeatherDisplay:10.37,2013-11-29 11:59:00,
2013-11-29 07:04:00,59.7,57.7,30.23,NW,311,2.7,3.5,93,0.00,CLR,,0.00,WeatherDisplay:10.37,2013-11-29 12:04:00,
2013-11-29 07:09:00,59.7,57.7,30.23,NW,311,0.4,1.2,93,0.00,CLR,,0.00,WeatherDisplay:10.37,2013-11-29 12:09:00,
2013-11-29 07:14:00,59.8,57.8,30.23,NW,313,1.3,3.5,93,0.00,CLR,,0.00,WeatherDisplay:10.37,2013-11-29 12:14:00,
2013-11-29 07:19:00,59.8,57.8,30.23,NW,315,3.4,4.6,93,0.00,CLR,,0.00,WeatherDisplay:10.37,2013-11-29 12:19:00,
2013-11-29 07:24:00,59.8,57.8,30.23,NW,315,2.5,5.0,93,0.00,CLR,,0.00,WeatherDisplay:10.37,2013-11-29 12:24:00,
2013-11-29 07:29:00,59.8,57.8,30.23,NW,325,2.1,4.0,93,0.00,CLR,,0.00,WeatherDisplay:10.37,2013-11-29 12:29:00,
2013-11-29 07:35:00,59.9,57.9,30.23,NW,322,3.0,3.5,93,0.00,CLR,,0.00,WeatherDisplay:10.37,2013-11-29 12:35:00,
2013-11-29 07:40:00,60.3,58.3,30.23,NW,322,2.2,3.5,93,0.00,CLR,,0.00,WeatherDisplay:10.37,2013-11-29 12:40:00,
2013-11-29 07:45:00,60.7,58.4,30.23,NNW,329,1.2,3.5,92,0.00,CLR,,0.00,WeatherDisplay:10.37,2013-11-29 12:45:00,
2013-11-29 07:50:00,61.3,59.3,30.23,NNW,333,1.3,3.5,93,0.00,CLR,,0.00,WeatherDisplay:10.37,2013-11-29 12:50:00,
2013-11-29 07:55:00,61.4,58.7,30.23,NW,315,3.1,5.8,91,0.00,CLR,,0.00,WeatherDisplay:10.37,2013-11-29 12:55:00,
2013-11-29 08:00:00,61.7,59.0,30.24,NW,319,1.5,3.5,91,0.00,CLR,,0.00,WeatherDisplay:10.37,2013-11-29 13:00:00,
2013-11-29 08:05:00,62.1,59.1,30.24,NW,318,3.2,4.6,90,0.00,CLR,,0.00,WeatherDisplay:10.37,2013-11-29 13:05:00,
2013-11-29 08:10:00,62.4,59.4,30.24,NW,318,1.9,3.5,90,0.00,CLR,,0.00,WeatherDisplay:10.37,2013-11-29 13:10:00,
2013-11-29 08:15:00,62.8,59.5,30.24,NW,318,0.0,0.0,89,0.00,CLR,,0.00,WeatherDisplay:10.37,2013-11-29 13:15:00,
2013-11-29 08:20:00,63.3,60.0,30.25,NW,318,1.2,3.5,89,0.00,CLR,,0.00,WeatherDisplay:10.37,2013-11-29 13:20:00,
2013-11-29 08:25:00,63.6,60.0,30.25,NW,318,1.2,2.3,88,0.00,CLR,,0.00,WeatherDisplay:10.37,2013-11-29 13:25:00,
2013-11-29 08:30:00,63.9,60.0,30.25,NW,318,0.6,1.2,87,0.00,CLR,,0.00,WeatherDisplay:10.37,2013-11-29 13:30:00,
2013-11-29 08:35:00,64.1,60.2,30.25,NW,318,0.1,1.2,87,0.00,CLR,,0.00,WeatherDisplay:10.37,2013-11-29 13:35:00,
2013-11-29 08:40:00,64.7,60.7,30.25,NW,318,0.4,2.3,87,0.00,CLR,,0.00,WeatherDisplay:10.37,2013-11-29 13:40:00,
2013-11-29 08:45:00,65.1,60.1,30.25,NW,318,1.3,3.5,84,0.00,CLR,,0.00,WeatherDisplay:10.37,2013-11-29 13:45:00,
2013-11-29 08:50:00,65.5,60.9,30.26,NW,318,1.3,2.3,85,0.00,CLR,,0.00,WeatherDisplay:10.37,2013-11-29 13:50:00,
2013-11-29 08:55:00,66.1,61.5,30.26,NW,318,0.8,2.3,85,0.00,CLR,,0.00,WeatherDisplay:10.37,2013-11-29 13:55:00,
2013-11-29 09:00:00,66.6,61.6,30.26,NW,318,0.5,1.2,84,0.00,CLR,,0.00,WeatherDisplay:10.37,2013-11-29 14:00:00,
2013-11-29 09:05:00,66.8,61.1,30.26,NW,318,2.7,3.5,82,0.00,CLR,,0.00,WeatherDisplay:10.37,2013-11-29 14:05:00,
2013-11-29 09:11:00,67.0,61.3,30.26,NW,318,0.5,2.3,82,0.00,CLR,,0.00,WeatherDisplay:10.37,2013-11-29 14:11:00,
2013-11-29 09:16:00,67.2,61.2,30.26,NW,318,1.2,3.5,81,0.00,CLR,,0.00,WeatherDisplay:10.37,2013-11-29 14:16:00,
2013-11-29 09:21:00,67.7,62.0,30.26,NW,318,0.2,2.3,82,0.00,CLR,,0.00,WeatherDisplay:10.37,2013-11-29 14:21:00,
2013-11-29 09:26:00,68.3,62.2,30.26,NW,318,1.4,3.5,81,0.00,CLR,,0.00,WeatherDisplay:10.37,2013-11-29 14:26:00,
2013-11-29 09:31:00,68.8,62.4,30.26,NW,318,1.0,3.5,80,0.00,CLR,,0.00,WeatherDisplay:10.37,2013-11-29 14:31:00,
2013-11-29 09:36:00,69.2,62.4,30.26,NW,318,1.1,1.2,79,0.00,CLR,,0.00,WeatherDisplay:10.37,2013-11-29 14:36:00,
2013-11-29 09:41:00,69.5,62.3,30.26,NW,318,1.0,2.3,78,0.00,CLR,,0.00,WeatherDisplay:10.37,2013-11-29 14:41:00,
2013-11-29 09:46:00,70.1,62.9,30.25,NNW,340,0.6,1.2,78,0.00,CLR,,0.00,WeatherDisplay:10.37,2013-11-29 14:46:00,
2013-11-29 09:51:00,70.6,63.4,30.25,NNW,329,1.4,4.6,78,0.00,CLR,,0.00,WeatherDisplay:10.37,2013-11-29 14:51:00,
2013-11-29 09:56:00,71.2,62.9,30.25,North,350,4.6,5.8,75,0.00,CLR,,0.00,WeatherDisplay:10.37,2013-11-29 14:56:00,
2013-11-29 10:01:00,71.7,63.4,30.25,NNW,348,4.4,4.6,75,0.00,CLR,,0.00,WeatherDisplay:10.37,2013-11-29 15:01:00,
2013-11-29 10:06:00,72.4,63.6,30.25,NNE,26,0.8,3.5,74,0.00,CLR,,0.00,WeatherDisplay:10.37,2013-11-29 15:06:00,
2013-11-29 10:11:00,73.0,63.0,30.25,NNE,20,2.1,3.5,71,0.00,CLR,,0.00,WeatherDisplay:10.37,2013-11-29 15:11:00,
2013-11-29 10:16:00,73.3,63.7,30.25,NNE,14,2.4,3.5,72,0.00,CLR,,0.00,WeatherDisplay:10.37,2013-11-29 15:16:00,
2013-11-29 10:21:00,73.7,63.3,30.25,NNE,15,5.2,8.1,70,0.00,CLR,,0.00,WeatherDisplay:10.37,2013-11-29 15:21:00,
2013-11-29 10:26:00,74.2,63.8,30.25,NE,42,5.7,11.5,70,0.00,CLR,,0.00,WeatherDisplay:10.37,2013-11-29 15:26:00,
2013-11-29 10:31:00,74.7,62.6,30.25,NE,52,11.2,16.1,66,0.00,CLR,,0.00,WeatherDisplay:10.37,2013-11-29 15:31:00,
2013-11-29 10:36:00,74.6,62.1,30.25,NE,38,7.1,10.4,65,0.00,CLR,,0.00,WeatherDisplay:10.37,2013-11-29 15:36:00,
2013-11-29 10:41:00,74.7,62.1,30.25,NNE,22,8.0,10.4,65,0.00,CLR,,0.00,WeatherDisplay:10.37,2013-11-29 15:41:00,
2013-11-29 10:46:00,74.7,62.1,30.24,ENE,69,5.9,8.1,65,0.00,CLR,,0.00,WeatherDisplay:10.37,2013-11-29 15:46:00,
2013-11-29 10:51:00,74.6,62.5,30.25,ENE,59,9.4,16.1,66,0.00,CLR,,0.00,WeatherDisplay:10.37,2013-11-29 15:51:00,
2013-11-29 10:56:00,74.2,62.1,30.24,NE,35,6.5,13.8,66,0.00,CLR,,0.00,WeatherDisplay:10.37,2013-11-29 15:56:00,
2013-11-29 11:01:00,74.0,62.3,30.24,North,5,10.6,12.7,67,0.00,CLR,,0.00,WeatherDisplay:10.37,2013-11-29 16:01:00,
2013-11-29 11:06:00,74.6,62.9,30.24,East,82,6.8,10.4,67,0.00,CLR,,0.00,WeatherDisplay:10.37,2013-11-29 16:06:00,
2013-11-29 11:11:00,74.7,62.1,30.24,NE,35,7.7,12.7,65,0.00,CLR,,0.00,WeatherDisplay:10.37,2013-11-29 16:11:00,
2013-11-29 11:16:00,75.0,62.4,30.24,East,86,9.6,13.8,65,0.00,CLR,,0.00,WeatherDisplay:10.37,2013-11-29 16:16:00,
2013-11-29 11:21:00,74.9,62.8,30.23,ENE,71,7.5,9.2,66,0.00,CLR,,0.00,WeatherDisplay:10.37,2013-11-29 16:21:00,
2013-11-29 11:26:00,74.8,62.7,30.23,East,80,9.5,11.5,66,0.00,CLR,,0.00,WeatherDisplay:10.37,2013-11-29 16:26:00,
2013-11-29 11:31:00,74.8,62.7,30.23,NE,35,6.6,6.9,66,0.00,CLR,,0.00,WeatherDisplay:10.37,2013-11-29 16:31:00,
2013-11-29 11:36:00,74.7,62.6,30.23,NNE,32,8.2,9.2,66,0.00,CLR,,0.00,WeatherDisplay:10.37,2013-11-29 16:36:00,
2013-11-29 11:41:00,74.5,62.0,30.23,NNW,341,8.5,11.5,65,0.00,CLR,,0.00,WeatherDisplay:10.37,2013-11-29 16:41:00,
2013-11-29 11:46:00,74.6,62.5,30.23,NE,42,7.7,12.7,66,0.00,CLR,,0.00,WeatherDisplay:10.37,2013-11-29 16:46:00,
2013-11-29 11:51:00,74.6,61.6,30.22,NNE,32,5.4,6.9,64,0.00,CLR,,0.00,WeatherDisplay:10.37,2013-11-29 16:51:00,
2013-11-29 11:56:00,74.5,62.0,30.22,NE,34,5.7,10.4,65,0.00,CLR,,0.00,WeatherDisplay:10.37,2013-11-29 16:56:00,
2013-11-29 12:01:00,74.5,62.0,30.22,NNE,31,8.3,11.5,65,0.00,CLR,,0.00,WeatherDisplay:10.37,2013-11-29 17:01:00,
2013-11-29 12:06:00,74.4,61.4,30.22,NE,40,6.4,10.4,64,0.00,CLR,,0.00,WeatherDisplay:10.37,2013-11-29 17:06:00,
2013-11-29 12:11:00,74.6,61.6,30.22,NNW,336,10.6,13.8,64,0.00,CLR,,0.00,WeatherDisplay:10.37,2013-11-29 17:11:00,
2013-11-29 12:16:00,74.4,61.4,30.21,NE,35,7.9,11.5,64,0.00,CLR,,0.00,WeatherDisplay:10.37,2013-11-29 17:16:00,
2013-11-29 12:21:00,74.6,61.6,30.21,NE,45,5.5,8.1,64,0.00,CLR,,0.00,WeatherDisplay:10.37,2013-11-29 17:21:00,
2013-11-29 12:26:00,74.6,61.2,30.21,NE,51,7.7,10.4,63,0.00,CLR,,0.00,WeatherDisplay:10.37,2013-11-29 17:26:00,
2013-11-29 12:31:00,74.6,61.6,30.20,ENE,59,5.5,9.2,64,0.00,CLR,,0.00,WeatherDisplay:10.37,2013-11-29 17:31:00,
2013-11-29 12:36:00,74.6,62.1,30.20,ENE,68,6.1,11.5,65,0.00,CLR,,0.00,WeatherDisplay:10.37,2013-11-29 17:36:00,
2013-11-29 12:41:00,74.6,62.5,30.20,NNE,30,6.1,11.5,66,0.00,CLR,,0.00,WeatherDisplay:10.37,2013-11-29 17:41:00,
2013-11-29 12:46:00,74.4,62.3,30.20,NNE,24,6.5,13.0,66,0.00,CLR,,0.00,WeatherDisplay:10.37,2013-11-29 17:46:00,
2013-11-29 12:51:00,74.5,62.0,30.20,ENE,69,7.1,13.0,65,0.00,CLR,,0.00,WeatherDisplay:10.37,2013-11-29 17:51:00,
2013-11-29 12:56:00,74.8,61.8,30.19,NE,44,5.7,10.4,64,0.00,CLR,,0.00,WeatherDisplay:10.37,2013-11-29 17:56:00,
2013-11-29 13:01:00,74.8,61.4,30.20,NNE,32,4.5,8.1,63,0.00,CLR,,0.00,WeatherDisplay:10.37,2013-11-29 18:01:00,
2013-11-29 13:06:00,74.6,61.6,30.19,NE,40,8.1,10.4,64,0.00,CLR,,0.00,WeatherDisplay:10.37,2013-11-29 18:06:00,
2013-11-29 13:11:00,74.5,61.1,30.19,NE,37,10.5,15.0,63,0.00,CLR,,0.00,WeatherDisplay:10.37,2013-11-29 18:11:00,
2013-11-29 13:16:00,74.4,61.4,30.19,NE,47,5.8,9.2,64,0.00,CLR,,0.00,WeatherDisplay:10.37,2013-11-29 18:16:00,
2013-11-29 13:21:00,74.6,61.6,30.19,NE,53,8.2,11.5,64,0.00,CLR,,0.00,WeatherDisplay:10.37,2013-11-29 18:21:00,
2013-11-29 13:26:00,74.6,61.6,30.19,NE,46,5.0,5.8,64,0.00,CLR,,0.00,WeatherDisplay:10.37,2013-11-29 18:26:00,
2013-11-29 13:31:00,74.4,61.0,30.19,ENE,57,6.6,10.4,63,0.00,CLR,,0.00,WeatherDisplay:10.37,2013-11-29 18:31:00,
2013-11-29 13:36:00,74.5,61.5,30.19,NE,48,8.0,12.7,64,0.00,CLR,,0.00,WeatherDisplay:10.37,2013-11-29 18:36:00,
2013-11-29 13:41:00,74.4,61.4,30.19,NE,49,9.9,11.5,64,0.00,CLR,,0.00,WeatherDisplay:10.37,2013-11-29 18:41:00,
2013-11-29 13:46:00,74.3,60.9,30.19,NNE,22,10.0,17.3,63,0.00,CLR,,0.00,WeatherDisplay:10.37,2013-11-29 18:46:00,
2013-11-29 13:51:00,74.4,61.0,30.18,NNE,28,8.0,10.4,63,0.00,CLR,,0.00,WeatherDisplay:10.37,2013-11-29 18:51:00,
2013-11-29 13:56:00,74.5,62.0,30.18,NE,38,9.6,10.4,65,0.00,CLR,,0.00,WeatherDisplay:10.37,2013-11-29 18:56:00,
2013-11-29 14:01:00,74.8,61.8,30.18,North,11,9.8,14.0,64,0.00,CLR,,0.00,WeatherDisplay:10.37,2013-11-29 19:01:00,
2013-11-29 14:06:00,75.1,62.5,30.18,NE,41,7.5,16.1,65,0.00,CLR,,0.00,WeatherDisplay:10.37,2013-11-29 19:06:00,
2013-11-29 14:11:00,74.8,61.8,30.18,NE,38,8.9,10.4,64,0.00,CLR,,0.00,WeatherDisplay:10.37,2013-11-29 19:11:00,
2013-11-29 14:16:00,74.4,62.3,30.18,NNE,28,10.5,13.8,66,0.00,CLR,,0.00,WeatherDisplay:10.37,2013-11-29 19:16:00,
2013-11-29 14:21:00,74.0,62.3,30.18,NE,39,4.0,6.9,67,0.00,CLR,,0.00,WeatherDisplay:10.37,2013-11-29 19:21:00,
2013-11-29 14:26:00,73.8,62.2,30.18,NNE,23,7.0,10.4,67,0.00,CLR,,0.00,WeatherDisplay:10.37,2013-11-29 19:26:00,
2013-11-29 14:31:00,73.7,62.5,30.18,NNE,32,7.7,9.2,68,0.00,CLR,,0.00,WeatherDisplay:10.37,2013-11-29 19:31:00,
2013-11-29 14:36:00,73.8,62.2,30.18,NNE,28,7.8,11.5,67,0.00,CLR,,0.00,WeatherDisplay:10.37,2013-11-29 19:36:00,
2013-11-29 14:41:00,73.8,61.7,30.18,NE,40,9.8,11.5,66,0.00,CLR,,0.00,WeatherDisplay:10.37,2013-11-29 19:41:00,
2013-11-29 14:46:00,73.9,61.8,30.18,North,5,9.8,13.0,66,0.00,CLR,,0.00,WeatherDisplay:10.37,2013-11-29 19:46:00,
2013-11-29 14:51:00,73.9,62.2,30.18,North,5,8.7,11.5,67,0.00,CLR,,0.00,WeatherDisplay:10.37,2013-11-29 19:51:00,
2013-11-29 14:57:00,73.8,61.3,30.18,NNE,28,4.2,6.9,65,0.00,CLR,,0.00,WeatherDisplay:10.37,2013-11-29 19:57:00,
2013-11-29 15:02:00,73.7,61.2,30.18,NNE,32,10.0,17.0,65,0.00,CLR,,0.00,WeatherDisplay:10.37,2013-11-29 20:02:00,
2013-11-29 15:07:00,73.6,61.1,30.18,NE,42,10.5,11.5,65,0.00,CLR,,0.00,WeatherDisplay:10.37,2013-11-29 20:07:00,
2013-11-29 15:12:00,73.5,61.9,30.18,ENE,57,5.9,8.1,67,0.00,CLR,,0.00,WeatherDisplay:10.37,2013-11-29 20:12:00,
2013-11-29 15:17:00,73.5,61.4,30.18,NE,38,6.6,9.2,66,0.00,CLR,,0.00,WeatherDisplay:10.37,2013-11-29 20:17:00,
2013-11-29 15:22:00,73.4,61.3,30.18,NNE,28,10.8,15.0,66,0.00,CLR,,0.00,WeatherDisplay:10.37,2013-11-29 20:22:00,
2013-11-29 15:27:00,73.3,61.7,30.18,NE,47,6.0,10.4,67,0.00,CLR,,0.00,WeatherDisplay:10.37,2013-11-29 20:27:00,
2013-11-29 15:32:00,73.3,61.7,30.18,NNE,25,5.5,17.3,67,0.00,CLR,,0.00,WeatherDisplay:10.37,2013-11-29 20:32:00,
2013-11-29 15:37:00,73.4,61.8,30.18,ENE,71,6.5,9.2,67,0.00,CLR,,0.00,WeatherDisplay:10.37,2013-11-29 20:37:00,
2013-11-29 15:42:00,73.4,62.2,30.18,NE,34,6.8,13.0,68,0.00,CLR,,0.00,WeatherDisplay:10.37,2013-11-29 20:42:00,
2013-11-29 15:47:00,73.3,61.7,30.18,NNE,28,6.4,12.7,67,0.00,CLR,,0.00,WeatherDisplay:10.37,2013-11-29 20:47:00,
2013-11-29 15:52:00,73.3,62.5,30.18,NE,34,6.1,11.5,69,0.00,CLR,,0.00,WeatherDisplay:10.37,2013-11-29 20:52:00,
2013-11-29 15:57:00,73.4,61.8,30.18,ENE,74,9.7,15.0,67,0.00,CLR,,0.00,WeatherDisplay:10.37,2013-11-29 20:57:00,
2013-11-29 16:02:00,73.3,61.7,30.18,NNE,33,7.4,15.0,67,0.00,CLR,,0.00,WeatherDisplay:10.37,2013-11-29 21:02:00,
2013-11-29 16:07:00,73.4,61.8,30.18,NE,43,4.6,10.4,67,0.00,CLR,,0.00,WeatherDisplay:10.37,2013-11-29 21:07:00,
2013-11-29 16:12:00,73.3,61.3,30.18,NNE,26,9.5,12.0,66,0.00,CLR,,0.00,WeatherDisplay:10.37,2013-11-29 21:12:00,
2013-11-29 16:17:00,73.3,61.7,30.18,East,92,9.1,12.7,67,0.00,CLR,,0.00,WeatherDisplay:10.37,2013-11-29 21:17:00,
2013-11-29 16:22:00,73.3,61.7,30.18,ENE,74,7.7,10.4,67,0.00,CLR,,0.00,WeatherDisplay:10.37,2013-11-29 21:22:00,
2013-11-29 16:27:00,73.2,61.6,30.18,NE,44,6.3,10.4,67,0.00,CLR,,0.00,WeatherDisplay:10.37,2013-11-29 21:27:00,
2013-11-29 16:32:00,73.1,61.9,30.18,NE,53,5.8,11.5,68,0.00,CLR,,0.00,WeatherDisplay:10.37,2013-11-29 21:32:00,
2013-11-29 16:37:00,73.0,61.8,30.17,East,95,6.8,6.8,68,0.00,CLR,,0.00,WeatherDisplay:10.37,2013-11-29 21:37:00,
2013-11-29 16:42:00,73.0,61.8,30.18,NNE,32,3.7,4.6,68,0.00,CLR,,0.00,WeatherDisplay:10.37,2013-11-29 21:42:00,
2013-11-29 16:47:00,73.0,61.8,30.18,East,81,7.9,10.4,68,0.00,CLR,,0.00,WeatherDisplay:10.37,2013-11-29 21:47:00,
2013-11-29 16:52:00,73.0,62.2,30.18,ENE,67,6.0,11.5,69,0.00,CLR,,0.00,WeatherDisplay:10.37,2013-11-29 21:52:00,
2013-11-29 16:57:00,73.0,62.2,30.18,NE,45,4.4,5.8,69,0.00,CLR,,0.00,WeatherDisplay:10.37,2013-11-29 21:57:00,
2013-11-29 17:02:00,73.0,61.8,30.18,NE,51,7.3,10.4,68,0.00,CLR,,0.00,WeatherDisplay:10.37,2013-11-29 22:02:00,
2013-11-29 17:07:00,73.0,61.8,30.18,ENE,65,9.1,11.5,68,0.00,CLR,,0.00,WeatherDisplay:10.37,2013-11-29 22:07:00,
2013-11-29 17:12:00,73.0,61.8,30.18,East,91,8.9,11.5,68,0.00,CLR,,0.00,WeatherDisplay:10.37,2013-11-29 22:12:00,
2013-11-29 17:17:00,73.0,61.8,30.18,NE,56,6.2,8.1,68,0.00,CLR,,0.00,WeatherDisplay:10.37,2013-11-29 22:17:00,
2013-11-29 17:22:00,73.0,61.8,30.18,NE,47,7.2,12.7,68,0.00,CLR,,0.00,WeatherDisplay:10.37,2013-11-29 22:22:00,
2013-11-29 17:27:00,72.9,61.7,30.18,NNE,22,6.1,16.1,68,0.00,CLR,,0.00,WeatherDisplay:10.37,2013-11-29 22:27:00,
2013-11-29 17:32:00,72.9,62.1,30.19,NE,40,9.5,11.5,69,0.00,CLR,,0.00,WeatherDisplay:10.37,2013-11-29 22:32:00,
2013-11-29 17:37:00,72.9,61.3,30.18,NE,39,9.3,9.3,67,0.00,CLR,,0.00,WeatherDisplay:10.37,2013-11-29 22:37:00,
2013-11-29 17:42:00,72.9,61.3,30.19,NE,53,8.0,11.5,67,0.00,CLR,,0.00,WeatherDisplay:10.37,2013-11-29 22:42:00,
2013-11-29 17:47:00,72.9,61.3,30.19,NNE,23,5.0,6.9,67,0.00,CLR,,0.00,WeatherDisplay:10.37,2013-11-29 22:47:00,
2013-11-29 17:52:00,72.9,61.3,30.19,NE,38,9.2,13.8,67,0.00,CLR,,0.00,WeatherDisplay:10.37,2013-11-29 22:52:00,
2013-11-29 17:57:00,72.9,61.3,30.19,NNE,22,2.3,9.2,67,0.00,CLR,,0.00,WeatherDisplay:10.37,2013-11-29 22:57:00,
2013-11-29 18:02:00,72.9,60.9,30.19,NNE,12,6.7,11.5,66,0.00,CLR,,0.00,WeatherDisplay:10.37,2013-11-29 23:02:00,
2013-11-29 18:07:00,72.8,61.2,30.19,NE,36,4.0,5.8,67,0.00,CLR,,0.00,WeatherDisplay:10.37,2013-11-29 23:07:00,
2013-11-29 18:12:00,72.7,60.7,30.19,NNE,30,7.7,11.5,66,0.00,CLR,,0.00,WeatherDisplay:10.37,2013-11-29 23:12:00,
2013-11-29 18:17:00,72.8,60.8,30.19,NNE,22,6.8,8.1,66,0.00,CLR,,0.00,WeatherDisplay:10.37,2013-11-29 23:17:00,
2013-11-29 18:22:00,72.7,60.7,30.19,NNE,15,5.8,9.2,66,0.00,CLR,,0.00,WeatherDisplay:10.37,2013-11-29 23:22:00,
2013-11-29 18:27:00,72.7,60.7,30.20,ENE,63,6.3,10.4,66,0.00,CLR,,0.00,WeatherDisplay:10.37,2013-11-29 23:27:00,
2013-11-29 18:32:00,72.6,60.6,30.20,NNE,23,8.8,11.5,66,0.00,CLR,,0.00,WeatherDisplay:10.37,2013-11-29 23:32:00,
2013-11-29 18:37:00,72.7,60.7,30.20,NNE,26,6.3,8.1,66,0.00,CLR,,0.00,WeatherDisplay:10.37,2013-11-29 23:37:00,
2013-11-29 18:42:00,72.7,60.3,30.20,NNE,12,6.6,11.5,65,0.00,CLR,,0.00,WeatherDisplay:10.37,2013-11-29 23:42:00,
2013-11-29 18:47:00,72.6,60.2,30.20,NE,40,8.9,13.8,65,0.00,CLR,,0.00,WeatherDisplay:10.37,2013-11-29 23:47:00,
2013-11-29 18:52:00,72.6,60.2,30.20,NE,49,4.4,5.8,65,0.00,CLR,,0.00,WeatherDisplay:10.37,2013-11-29 23:52:00,
2013-11-29 18:57:00,72.6,59.7,30.20,ENE,64,6.1,10.4,64,0.00,CLR,,0.00,WeatherDisplay:10.37,2013-11-29 23:57:00,
2013-11-29 19:02:00,72.7,60.3,30.20,NE,45,5.0,6.9,65,0.00,CLR,,0.00,WeatherDisplay:10.37,2013-11-30 00:02:00,
2013-11-29 19:07:00,72.8,60.3,30.20,NE,38,4.8,6.9,65,0.00,CLR,,0.00,WeatherDisplay:10.37,2013-11-30 00:07:00,
2013-11-29 19:12:00,72.8,60.3,30.20,NE,41,3.5,8.1,65,0.00,CLR,,0.00,WeatherDisplay:10.37,2013-11-30 00:12:00,
2013-11-29 19:17:00,73.0,60.1,30.21,NNE,23,4.3,10.4,64,0.00,CLR,,0.00,WeatherDisplay:10.37,2013-11-30 00:17:00,
2013-11-29 19:22:00,73.1,60.2,30.21,NE,34,8.8,11.5,64,0.00,CLR,,0.00,WeatherDisplay:10.37,2013-11-30 00:22:00,
2013-11-29 19:27:00,73.1,60.2,30.20,NE,54,4.0,6.9,64,0.00,CLR,,0.00,WeatherDisplay:10.37,2013-11-30 00:27:00,
2013-11-29 19:32:00,73.0,60.5,30.20,NE,42,3.2,6.9,65,0.00,CLR,,0.00,WeatherDisplay:10.37,2013-11-30 00:32:00,
2013-11-29 19:37:00,72.9,60.0,30.20,NNE,22,7.0,11.5,64,0.00,CLR,,0.00,WeatherDisplay:10.37,2013-11-30 00:37:00,
2013-11-29 19:42:00,72.8,60.8,30.20,NE,38,3.1,4.6,66,0.00,CLR,,0.00,WeatherDisplay:10.37,2013-11-30 00:42:00,
2013-11-29 19:48:00,72.7,60.3,30.21,NNE,24,4.5,5.8,65,0.00,CLR,,0.00,WeatherDisplay:10.37,2013-11-30 00:48:00,
2013-11-29 19:53:00,72.7,60.3,30.21,NNE,19,6.0,11.5,65,0.00,CLR,,0.00,WeatherDisplay:10.37,2013-11-30 00:53:00,
2013-11-29 19:58:00,72.7,59.8,30.21,NNE,32,3.7,5.8,64,0.00,CLR,,0.00,WeatherDisplay:10.37,2013-11-30 00:58:00,
2013-11-29 20:03:00,72.6,60.2,30.21,NE,40,5.0,10.4,65,0.00,CLR,,0.00,WeatherDisplay:10.37,2013-11-30 01:03:00,
2013-11-29 20:08:00,72.6,59.7,30.21,NE,35,4.8,5.8,64,0.00,CLR,,0.00,WeatherDisplay:10.37,2013-11-30 01:08:00,
2013-11-29 20:13:00,72.6,59.3,30.21,NNE,26,4.5,5.8,63,0.00,CLR,,0.00,WeatherDisplay:10.37,2013-11-30 01:13:00,
2013-11-29 20:18:00,72.5,59.6,30.21,NNE,32,3.2,5.8,64,0.00,CLR,,0.00,WeatherDisplay:10.37,2013-11-30 01:18:00,
2013-11-29 20:23:00,72.5,59.2,30.21,NE,39,1.7,6.9,63,0.00,CLR,,0.00,WeatherDisplay:10.37,2013-11-30 01:23:00,
2013-11-29 20:28:00,72.5,59.6,30.21,NNE,22,3.3,6.9,64,0.00,CLR,,0.00,WeatherDisplay:10.37,2013-11-30 01:28:00,
2013-11-29 20:33:00,72.7,59.8,30.21,NNE,31,2.5,6.9,64,0.00,CLR,,0.00,WeatherDisplay:10.37,2013-11-30 01:33:00,
2013-11-29 20:38:00,72.7,60.3,30.21,NE,48,3.2,3.5,65,0.00,CLR,,0.00,WeatherDisplay:10.37,2013-11-30 01:38:00,
2013-11-29 20:43:00,72.6,60.2,30.20,NE,34,3.9,5.8,65,0.00,CLR,,0.00,WeatherDisplay:10.37,2013-11-30 01:43:00,
2013-11-29 20:48:00,72.5,60.5,30.20,NNE,16,5.8,6.9,66,0.00,CLR,,0.00,WeatherDisplay:10.37,2013-11-30 01:48:00,
2013-11-29 20:53:00,72.5,60.9,30.20,NE,36,4.7,6.9,67,0.00,CLR,,0.00,WeatherDisplay:10.37,2013-11-30 01:53:00,
2013-11-29 20:58:00,72.4,60.8,30.21,NE,36,3.5,3.5,67,0.00,CLR,,0.00,WeatherDisplay:10.37,2013-11-30 01:58:00,
2013-11-29 21:03:00,72.3,61.6,30.21,NNE,30,1.7,4.0,69,0.00,CLR,,0.00,WeatherDisplay:10.37,2013-11-30 02:03:00,
2013-11-29 21:08:00,72.2,61.5,30.21,NNE,17,3.0,4.6,69,0.00,CLR,,0.00,WeatherDisplay:10.37,2013-11-30 02:08:00,
2013-11-29 21:13:00,72.2,61.5,30.22,NNE,26,0.7,5.8,69,0.00,CLR,,0.00,WeatherDisplay:10.37,2013-11-30 02:13:00,
2013-11-29 21:18:00,72.2,62.3,30.22,NNE,26,1.2,3.5,71,0.00,CLR,,0.00,WeatherDisplay:10.37,2013-11-30 02:18:00,
2013-11-29 21:23:00,72.2,62.3,30.21,NNE,25,2.6,2.6,71,0.00,CLR,,0.00,WeatherDisplay:10.37,2013-11-30 02:23:00,
2013-11-29 21:28:00,72.1,62.2,30.21,NNE,32,2.9,3.5,71,0.00,CLR,,0.00,WeatherDisplay:10.37,2013-11-30 02:28:00,
2013-11-29 21:33:00,72.2,62.7,30.21,NE,34,3.8,3.8,72,0.00,CLR,,0.00,WeatherDisplay:10.37,2013-11-30 02:33:00,
2013-11-29 21:38:00,72.3,62.8,30.21,NNE,24,2.9,4.6,72,0.00,CLR,,0.00,WeatherDisplay:10.37,2013-11-30 02:38:00,
2013-11-29 21:43:00,72.4,63.3,30.21,NNE,19,2.7,5.0,73,0.00,CLR,,0.00,WeatherDisplay:10.37,2013-11-30 02:43:00,
2013-11-29 21:48:00,72.4,63.3,30.21,NE,56,1.8,4.0,73,0.00,CLR,,0.00,WeatherDisplay:10.37,2013-11-30 02:48:00,
2013-11-29 21:53:00,72.4,63.3,30.21,NE,48,0.6,2.3,73,0.00,CLR,,0.00,WeatherDisplay:10.37,2013-11-30 02:53:00,
2013-11-29 21:58:00,72.4,63.6,30.21,NNW,341,3.1,3.1,74,0.00,CLR,,0.00,WeatherDisplay:10.37,2013-11-30 02:58:00,
2013-11-29 22:03:00,72.5,63.7,30.21,NNE,29,4.4,4.4,74,0.00,CLR,,0.00,WeatherDisplay:10.37,2013-11-30 03:03:00,
2013-11-29 22:08:00,72.5,63.7,30.21,NNE,32,2.3,3.5,74,0.00,CLR,,0.00,WeatherDisplay:10.37,2013-11-30 03:08:00,
2013-11-29 22:13:00,72.5,63.7,30.21,NE,36,1.2,2.3,74,0.00,CLR,,0.00,WeatherDisplay:10.37,2013-11-30 03:13:00,
2013-11-29 22:18:00,72.6,63.8,30.21,NNE,31,1.0,3.5,74,0.00,CLR,,0.00,WeatherDisplay:10.37,2013-11-30 03:18:00,
2013-11-29 22:23:00,72.5,63.7,30.21,NNE,29,3.3,5.8,74,0.00,CLR,,0.00,WeatherDisplay:10.37,2013-11-30 03:23:00,
2013-11-29 22:28:00,72.5,63.7,30.21,NNE,28,0.8,2.3,74,0.00,CLR,,0.00,WeatherDisplay:10.37,2013-11-30 03:28:00,
2013-11-29 22:33:00,72.3,63.5,30.21,NNE,30,3.8,5.8,74,0.00,CLR,,0.00,WeatherDisplay:10.37,2013-11-30 03:33:00,
2013-11-29 22:38:00,72.2,63.4,30.21,NNE,28,4.6,5.8,74,0.00,CLR,,0.00,WeatherDisplay:10.37,2013-11-30 03:38:00,
2013-11-29 22:43:00,72.1,63.7,30.21,NNE,28,0.2,2.3,75,0.00,CLR,,0.00,WeatherDisplay:10.37,2013-11-30 03:43:00,
2013-11-29 22:48:00,72.0,63.6,30.21,NNE,24,0.4,1.2,75,0.00,CLR,,0.00,WeatherDisplay:10.37,2013-11-30 03:48:00,
2013-11-29 22:53:00,71.9,63.5,30.21,NNE,24,1.6,3.5,75,0.00,CLR,,0.00,WeatherDisplay:10.37,2013-11-30 03:53:00,
2013-11-29 22:58:00,71.7,63.4,30.21,NNE,24,0.9,3.5,75,0.00,CLR,,0.00,WeatherDisplay:10.37,2013-11-30 03:58:00,
2013-11-29 23:03:00,71.5,63.2,30.20,NNE,24,0.8,2.3,75,0.00,CLR,,0.00,WeatherDisplay:10.37,2013-11-30 04:03:00,
2013-11-29 23:08:00,71.5,63.5,30.21,NNE,23,1.2,2.3,76,0.00,CLR,,0.00,WeatherDisplay:10.37,2013-11-30 04:08:00,
2013-11-29 23:13:00,71.5,63.9,30.20,NNE,23,3.1,3.5,77,0.00,CLR,,0.00,WeatherDisplay:10.37,2013-11-30 04:13:00,
2013-11-29 23:18:00,71.6,64.0,30.20,NNE,23,1.2,3.5,77,0.00,CLR,,0.00,WeatherDisplay:10.37,2013-11-30 04:18:00,
2013-11-29 23:23:00,71.2,63.2,30.20,NNE,23,0.2,1.2,76,0.00,CLR,,0.00,WeatherDisplay:10.37,2013-11-30 04:23:00,
2013-11-29 23:28:00,70.6,63.0,30.20,NNE,23,0.0,1.2,77,0.00,CLR,,0.00,WeatherDisplay:10.37,2013-11-30 04:28:00,
2013-11-29 23:33:00,69.9,62.7,30.20,NNE,23,1.6,3.5,78,0.00,CLR,,0.00,WeatherDisplay:10.37,2013-11-30 04:33:00,
2013-11-29 23:39:00,69.3,62.9,30.20,NNE,16,2.9,3.5,80,0.00,CLR,,0.00,WeatherDisplay:10.37,2013-11-30 04:39:00,
2013-11-29 23:44:00,68.8,62.4,30.20,NW,311,1.3,4.6,80,0.00,CLR,,0.00,WeatherDisplay:10.37,2013-11-30 04:44:00,
2013-11-29 23:49:00,68.3,62.2,30.20,WNW,302,2.5,3.5,81,0.00,CLR,,0.00,WeatherDisplay:10.37,2013-11-30 04:49:00,
2013-11-29 23:54:00,68.1,62.4,30.20,NW,313,1.5,5.8,82,0.00,CLR,,0.00,WeatherDisplay:10.37,2013-11-30 04:54:00,
2013-11-29 23:59:00,67.8,62.1,30.20,NW,317,2.4,4.6,82,0.00,CLR,,0.00,WeatherDisplay:10.37,2013-11-30 04:59:00,